Weather History for South Lake Tahoe, CA

Change the Weather History Date:

Wednesday, January 23, 2013

  Actual Average Record
Temperature  
Mean Temperature 38 °F 30 °F  
Max Temperature 52 °F 43 °F 56 °F (1994)
Min Temperature 24 °F 16 °F -4 °F (2002)
Degree Days  
Heating Degree Days 27 35  
Month to date heating degree days 957 812  
Since 1 July heating degree days 3819 3995  
Cooling Degree Days 0 0  
Month to date cooling degree days 0 0  
Year to date cooling degree days 0 0  
Moisture  
Dew Point 16 °F    
Average Humidity 45    
Maximum Humidity 75    
Minimum Humidity 14    
Precipitation  
Precipitation T in - 1.88 in (1954)
Month to date precipitation 0.36  
Year to date precipitation 0.36  
Sea Level Pressure  
Sea Level Pressure 30.10 in    
Wind  
Wind Speed 3 mph (SSW)    
Max Wind Speed 22 mph    
Max Gust Speed 31 mph    
Visibility 10 miles    
Events      
T = Trace of Precipitation, MM = Missing Value Source: NWS Daily Summary

Daily Weather History Graph

Daily Weather History Graph

Search for Another Location

Airport:

Trip Planner

Search our weather history database for the weather conditions in past years. The results will help you decide how hot, cold, wet, or windy it might be!

Date:

Astronomy

Jan. 23, 2013 Rise Set
Actual Time 7:12 AM PST 5:11 PM PST
Civil Twilight 6:44 AM PST 5:40 PM PST
Nautical Twilight 6:11 AM PST 6:12 PM PST
Astronomical Twilight 5:40 AM PST 6:44 PM PST
Moon 2:26 PM PST (1/23) 4:27 AM PST (1/23)
Length of Visible Light 10h 55m
Length of Day
9h 58m
Waxing Gibbous, 90% of the Moon is Illuminated
Jan 23
Waxing Gibbous
Jan 26
Full
Feb 3
Last Quarter
Feb 9
New
Feb 17
First Quarter

Hourly Weather History & Observations

Time (PST) Temp. Windchill Dew Point Humidity Pressure Visibility Wind Dir Wind Speed Gust Speed Precip Events Conditions
12:53 AM 28.0 °F - 19.0 °F 69% 30.13 in 10.0 mi Calm Calm - N/A   Clear
1:53 AM 30.9 °F - 17.1 °F 57% 30.10 in 10.0 mi Calm Calm - N/A   Clear
2:53 AM 30.9 °F - 17.1 °F 57% 30.12 in 10.0 mi Calm Calm - N/A   Clear
3:53 AM 37.0 °F 33.3 °F 10.0 °F 33% 30.09 in 10.0 mi SSW 4.6 mph - N/A   Clear
4:53 AM 33.1 °F - 17.1 °F 52% 30.10 in 10.0 mi Calm Calm - N/A   Clear
5:53 AM 27.0 °F - 14.0 °F 58% 30.13 in 10.0 mi Calm Calm - N/A   Clear
6:53 AM 27.0 °F - 14.0 °F 58% 30.15 in 10.0 mi Calm Calm - N/A   Clear
7:53 AM 26.1 °F - 12.9 °F 58% 30.16 in 10.0 mi Calm Calm - N/A   Partly Cloudy
8:53 AM 28.0 °F - 14.0 °F 56% 30.17 in 10.0 mi Calm Calm - N/A   Mostly Cloudy
9:53 AM 50.0 °F - 3.9 °F 15% 30.10 in 10.0 mi SSW 10.4 mph 16.1 mph N/A   Scattered Clouds
10:53 AM 51.1 °F - 5.0 °F 15% 30.10 in 10.0 mi SW 10.4 mph - N/A   Partly Cloudy
11:53 AM 52.0 °F - 6.1 °F 16% 30.09 in 10.0 mi Variable 5.8 mph 25.3 mph N/A   Clear
12:53 PM 52.0 °F - 10.0 °F 19% 30.06 in 10.0 mi SSW 11.5 mph 24.2 mph N/A   Clear
1:53 PM 50.0 °F - 12.0 °F 22% 30.05 in 10.0 mi South 8.1 mph 20.7 mph N/A   Clear
2:53 PM 48.9 °F - 10.9 °F 22% 30.06 in 10.0 mi South 8.1 mph - N/A   Clear
3:53 PM 46.9 °F - 12.9 °F 25% 30.05 in 10.0 mi SW 3.5 mph - N/A   Clear
4:53 PM 44.1 °F 40.8 °F 16.0 °F 32% 30.06 in 10.0 mi SSW 5.8 mph - N/A   Clear
5:53 PM 39.0 °F - 21.0 °F 49% 30.10 in 10.0 mi Calm Calm - N/A   Clear
6:53 PM 43.0 °F 38.8 °F 19.9 °F 40% 30.12 in 10.0 mi SSW 6.9 mph - N/A   Overcast
7:53 PM 41.0 °F 37.1 °F 23.0 °F 49% 30.12 in 10.0 mi SSW 5.8 mph - N/A   Mostly Cloudy
8:53 PM 37.9 °F 35.5 °F 26.1 °F 62% 30.14 in 10.0 mi NE 3.5 mph - N/A   Overcast
9:53 PM 36.0 °F - 27.0 °F 70% 30.08 in 10.0 mi Calm Calm - N/A   Mostly Cloudy
10:53 PM 35.1 °F - 28.0 °F 76% 30.09 in 10.0 mi Calm Calm - 0.00 in   Overcast
11:53 PM 35.1 °F - 28.9 °F 78% 30.07 in 10.0 mi Calm Calm - 0.00 in   Overcast